GFSCGP_850_thetae_126.txt.gz
Theta_e
308 306 306 305 305 306 306 307 307 308 309 309 308 307 308 309 309 308 308 307 305 303 302 304 305 305 306 307 306 306 306 307 307 307 307 308 308 308 307 307 311 318 324 332
305 306 307 307 308 308 308 308 309 308 309 309 308 306 306 307 307 306 304 303 302 302 303 302 303 303 304 303 304 305 305 306 306 306 307 307 308 308 308 307 306 309 318 322
304 306 309 308 308 309 309 309 308 308 307 307 306 306 307 307 307 304 302 301 300 299 299 300 300 300 300 301 302 302 303 304 305 305 305 306 306 307 307 307 307 307 309 318
307 308 309 309 310 308 308 308 308 307 305 305 305 304 304 306 306 303 301 299 298 299 298 298 297 297 296 297 298 299 301 301 302 302 303 303 304 305 307 306 307 308 308 309
308 309 308 307 308 308 308 307 306 306 304 304 304 303 304 307 306 303 300 298 297 297 296 295 295 295 295 295 294 295 296 297 299 300 301 301 301 303 304 305 305 307 308 308
307 308 306 305 307 307 307 306 304 304 303 305 305 303 303 307 305 303 300 298 296 295 294 293 293 293 293 293 294 296 296 298 298 298 298 298 298 299 300 303 304 305 306 308
306 306 306 306 305 306 305 303 304 305 306 306 305 305 308 304 303 301 299 297 295 294 292 292 291 291 291 291 292 292 292 294 294 295 296 295 295 295 297 298 300 302 304 306
305 306 307 307 306 305 305 304 305 309 309 305 305 305 307 303 301 300 298 296 295 293 292 291 290 290 290 290 290 289 289 291 291 291 292 292 292 293 295 297 297 299 301 304
306 306 306 305 306 306 306 304 305 305 304 304 304 306 305 302 301 300 299 295 294 293 292 291 290 289 289 289 289 288 289 289 289 289 290 291 291 292 294 296 297 298 300 302
306 306 306 306 306 305 304 304 304 304 307 306 304 305 305 303 302 300 298 294 293 292 291 290 289 289 289 288 288 288 289 289 288 289 289 289 291 292 293 294 296 297 299 302
303 304 304 304 304 304 304 302 303 303 304 305 303 298 296 298 299 297 296 295 292 291 290 289 289 289 289 288 288 288 289 289 288 288 288 288 289 291 292 293 295 297 299 302
303 302 303 303 304 303 304 303 304 303 305 303 303 302 301 298 298 296 295 294 292 290 289 288 289 289 289 289 289 288 290 289 288 288 288 288 288 290 291 292 294 296 300 302
303 301 301 303 302 305 305 306 307 306 303 303 301 299 299 299 296 295 294 292 291 289 289 288 289 290 290 290 289 290 289 289 289 288 288 287 287 288 289 291 293 295 298 301
303 302 302 303 303 303 302 302 302 306 303 305 301 297 301 300 297 295 293 291 289 289 288 288 289 290 291 290 290 289 289 289 290 289 288 287 287 287 288 289 292 294 295 297
300 302 298 301 302 303 302 301 302 300 303 305 300 301 298 298 295 294 292 290 289 288 287 285 285 286 287 287 286 286 288 290 291 290 290 288 288 288 289 289 291 294 295 295
300 299 294 293 302 302 302 301 301 302 302 299 298 302 296 295 294 292 291 289 288 286 284 283 283 284 284 284 283 283 283 284 287 291 291 291 292 292 291 291 294 293 293 294
298 297 294 297 302 304 305 302 300 299 301 302 303 301 295 294 293 291 289 288 287 284 283 282 282 282 283 282 282 282 282 282 283 284 285 289 291 293 292 294 294 293 294 294
299 298 299 302 301 305 301 302 303 303 303 300 298 297 296 295 291 290 289 288 285 283 282 282 282 282 282 282 282 282 282 282 282 283 283 284 284 284 285 287 289 290 292 293
301 299 300 301 304 303 304 303 303 303 303 300 298 296 292 290 288 287 287 285 283 282 282 282 282 282 282 282 283 283 283 282 282 282 282 282 283 283 283 283 283 283 284 284
301 300 300 302 306 306 303 304 303 303 299 299 297 293 291 290 294 289 285 283 282 281 281 282 282 282 282 282 282 283 283 283 282 281 281 281 281 282 282 282 282 282 282 282
304 303 303 303 304 304 304 302 303 300 300 299 295 293 291 291 293 290 284 282 281 281 281 281 281 282 282 282 282 283 282 282 281 282 282 281 281 281 281 281 281 281 281 281
306 305 305 305 305 304 301 302 302 299 299 297 295 293 292 292 290 288 283 281 281 281 281 281 281 282 282 282 282 282 282 281 281 281 282 281 281 281 281 281 281 280 280 281
306 303 301 301 301 297 299 300 300 300 299 297 296 293 293 291 288 284 283 282 282 281 281 281 281 281 281 282 283 282 281 281 281 281 281 281 281 281 281 281 280 280 279 279
303 302 301 300 298 297 299 299 299 300 300 298 298 296 294 293 287 284 283 282 282 282 281 281 281 281 281 282 282 282 282 281 281 281 281 280 280 280 280 279 279 279 278 277
300 301 299 297 294 296 297 298 298 299 298 298 296 296 295 294 286 284 283 283 283 282 281 281 281 281 281 281 282 281 281 281 281 280 279 279 279 278 278 278 277 277 275 275
299 297 297 297 296 296 295 296 297 298 297 296 295 292 291 291 286 285 283 282 282 281 281 281 281 281 281 281 281 280 280 280 280 280 279 278 278 278 277 277 276 276 275 275

GFSCGP_850_thetae_129.txt.gz
Theta_e
307 304 305 304 303 305 305 305 304 304 306 307 308 307 307 307 305 303 303 302 300 300 300 302 302 303 303 304 304 304 304 305 305 306 306 307 307 307 307 307 307 307 307 306
303 305 306 306 306 306 306 306 306 306 306 307 307 306 304 304 303 302 300 300 300 300 300 300 301 302 302 302 303 303 304 304 304 304 305 305 306 307 307 307 307 307 307 307
303 305 306 306 306 307 307 307 307 307 306 305 305 304 305 304 302 301 299 299 299 298 299 299 299 299 299 300 301 302 302 303 304 304 304 304 305 305 306 306 307 307 306 306
307 308 308 307 307 308 308 307 307 306 304 304 304 303 304 305 302 300 298 298 297 297 297 297 297 297 296 296 297 298 299 300 301 301 302 302 302 304 304 304 305 305 305 306
308 308 307 307 308 306 306 306 306 305 304 303 303 302 304 304 304 301 298 296 296 295 295 295 295 295 295 295 296 296 296 296 296 297 297 297 298 299 300 301 302 304 303 304
306 308 306 306 306 306 306 305 304 302 302 304 304 302 302 305 304 301 298 296 295 295 294 294 294 294 294 293 293 293 293 295 294 295 296 296 295 295 296 298 299 301 302 303
305 305 305 306 305 305 304 303 304 305 305 305 304 304 303 302 301 300 298 296 294 294 293 292 292 293 292 293 292 292 292 293 292 292 292 292 291 292 292 294 295 298 299 299
304 306 306 305 305 305 303 303 305 307 308 306 304 305 305 302 300 299 297 295 294 292 291 292 292 292 292 292 291 291 290 291 290 290 290 289 289 290 291 292 293 295 298 298
304 305 306 305 305 305 305 304 304 305 304 304 303 305 303 301 300 299 297 295 293 291 291 292 292 292 291 290 289 288 289 289 289 288 288 287 288 289 290 292 293 294 295 297
305 306 305 305 305 304 304 303 304 305 307 308 304 303 304 302 302 300 296 294 293 292 291 291 291 290 290 290 290 290 290 289 288 288 288 287 288 288 290 291 293 293 295 297
303 304 304 304 303 303 303 302 303 304 304 305 306 300 296 299 300 297 295 293 292 292 290 290 290 291 291 290 290 290 289 289 288 288 287 287 287 288 289 290 291 292 294 297
302 302 302 303 303 302 303 303 303 303 304 303 303 304 301 296 296 296 295 293 292 291 290 290 291 291 291 291 291 291 290 290 289 287 287 287 286 287 288 289 290 292 293 295
302 301 301 304 302 303 303 305 304 305 302 305 301 301 298 297 295 295 294 293 292 290 290 290 291 290 287 287 290 292 291 291 290 289 288 287 286 286 287 288 290 291 293 294
303 301 303 306 304 302 302 303 304 302 301 304 302 300 300 297 295 293 293 292 290 289 289 288 286 285 284 284 285 288 289 291 291 290 289 289 287 286 287 289 290 290 291 292
300 302 297 300 302 302 302 302 302 300 302 302 301 301 297 298 295 293 293 291 289 289 287 285 284 284 283 283 284 284 284 285 289 290 291 290 290 290 290 290 291 292 293 293
299 300 293 292 300 301 301 301 300 299 300 299 297 301 297 296 294 293 292 290 289 287 284 284 283 283 283 283 283 283 283 283 284 284 284 287 291 293 293 293 294 294 294 293
298 295 294 298 302 302 301 302 301 300 300 301 301 300 294 294 294 292 290 290 289 285 283 283 283 283 282 282 282 283 283 282 283 284 283 283 283 284 285 287 290 293 293 294
296 295 297 298 300 300 299 301 301 301 301 300 299 296 296 294 292 291 291 290 286 283 283 283 282 282 282 283 283 283 283 283 283 283 283 283 283 283 283 284 284 284 285 285
297 298 299 302 301 300 303 303 303 303 302 299 297 296 292 290 290 288 289 288 284 283 282 282 282 282 282 283 283 283 283 283 283 283 282 282 282 282 283 283 283 283 283 283
299 298 300 302 302 304 303 304 303 301 298 297 297 293 291 290 292 287 288 285 282 282 282 282 282 282 283 283 282 283 283 283 283 282 281 281 281 282 282 282 282 281 282 282
301 299 302 303 304 304 302 302 302 299 299 297 295 292 290 291 292 291 287 283 282 282 281 282 282 282 282 282 283 283 282 282 282 281 281 281 281 281 281 281 281 282 281 281
304 303 303 304 304 304 302 301 302 299 299 298 295 293 291 292 291 289 284 282 281 281 281 281 282 282 282 282 282 283 282 281 281 281 281 281 280 280 280 280 280 281 281 281
306 304 303 303 303 298 300 299 300 300 300 298 296 294 293 292 289 286 283 282 281 281 281 281 281 282 282 282 282 282 281 281 281 281 280 280 280 280 280 280 279 279 279 278
304 302 302 303 300 298 299 299 300 300 300 299 298 297 294 294 290 284 282 281 281 281 281 281 281 281 281 282 282 282 281 281 281 281 280 279 279 278 279 278 278 278 277 277
301 302 302 300 295 297 298 299 299 299 299 298 297 297 294 294 289 285 283 282 282 281 281 281 281 281 280 281 281 281 281 280 281 280 279 278 278 277 277 277 276 276 275 276
300 301 300 300 298 299 298 299 298 298 299 298 297 294 293 294 291 285 283 283 282 282 281 281 281 281 280 280 281 281 281 280 280 280 279 278 278 278 277 276 275 274 274 274

GFSCGP_850_thetae_135.txt.gz
Theta_e
305 307 308 307 306 306 306 307 307 307 308 308 310 309 308 304 303 302 301 300 299 300 300 301 301 302 302 302 303 303 303 304 304 304 305 305 305 305 305 306 306 306 306 306
306 309 308 306 305 306 307 307 308 308 307 307 309 308 307 305 303 301 300 299 298 300 301 301 301 301 302 302 302 302 302 302 302 302 302 302 303 304 304 304 304 305 305 305
312 310 305 306 307 307 307 308 308 309 308 305 306 308 307 304 302 300 298 298 298 297 298 299 300 300 300 301 301 301 301 300 300 300 300 300 300 301 302 303 303 303 303 303
308 306 305 306 307 307 309 308 308 308 307 308 305 308 307 307 305 303 300 299 297 297 298 298 299 299 299 299 299 298 298 298 297 297 297 297 297 297 298 299 301 301 301 302
310 307 307 308 309 308 309 307 306 306 306 305 305 307 307 305 307 307 303 299 298 298 298 297 297 297 297 296 296 296 296 295 295 295 293 292 290 290 290 292 295 298 299 298
309 306 306 308 306 307 306 306 305 304 305 308 308 308 308 308 308 305 302 299 297 297 297 297 297 296 296 296 296 296 295 295 294 293 291 289 288 287 288 289 289 290 292 294
310 310 307 306 308 305 305 307 310 310 308 309 304 305 307 305 305 305 304 299 297 296 296 296 296 297 297 297 296 295 295 294 293 292 290 288 287 287 287 288 289 289 291 292
311 309 306 305 310 310 305 307 309 309 308 308 304 307 308 304 303 301 300 298 296 296 296 296 296 296 296 296 295 295 295 294 293 291 289 287 287 286 286 287 287 288 289 291
306 306 304 304 304 306 305 306 305 307 305 306 307 306 305 303 302 300 299 297 296 295 295 295 295 295 295 295 295 295 295 294 293 292 288 287 286 286 285 286 287 288 289 289
306 308 304 303 304 303 306 305 307 307 308 308 308 307 310 307 306 303 301 299 295 295 294 294 294 294 292 291 294 294 294 294 293 291 288 287 286 286 285 287 287 288 288 288
305 307 305 304 305 306 305 305 305 306 306 308 308 312 307 306 305 305 302 298 295 294 294 293 293 292 289 287 287 288 290 292 293 292 290 289 288 287 287 287 287 287 288 288
305 307 306 306 303 303 303 305 306 308 307 305 306 309 302 302 301 301 300 297 294 294 293 293 292 289 286 286 286 286 286 286 291 292 291 290 289 289 288 287 287 287 287 287
305 306 307 306 304 303 304 303 304 305 305 306 308 310 300 299 300 299 298 295 292 293 291 291 289 287 286 285 285 285 285 284 285 288 291 291 291 291 290 289 288 287 287 288
304 304 309 310 308 305 305 304 304 305 306 305 308 308 306 305 302 298 296 294 292 291 291 289 286 285 284 285 285 285 284 284 284 284 284 285 288 290 291 291 291 289 289 290
306 306 301 302 303 303 303 304 305 305 305 307 307 307 306 304 303 300 297 292 291 290 290 287 285 284 284 284 284 284 283 283 284 284 284 283 284 284 285 287 290 291 291 290
301 304 299 299 301 302 303 303 303 304 304 304 303 303 303 301 298 296 294 292 291 290 289 285 284 284 284 284 283 284 283 283 283 283 283 283 283 283 284 284 284 284 284 285
303 304 306 309 302 303 305 304 302 304 302 302 302 303 301 300 298 296 293 292 291 290 287 284 284 284 284 284 283 283 283 283 283 283 282 282 282 283 283 283 283 283 283 283
302 306 307 306 303 306 306 300 302 302 302 301 302 302 299 298 293 293 293 293 291 290 286 284 284 284 284 283 283 283 283 283 283 282 282 282 282 282 282 282 282 281 282 281
300 303 303 306 304 305 305 302 303 304 305 304 303 299 294 291 292 290 292 293 292 291 285 284 284 284 284 283 283 283 283 283 283 282 282 282 282 282 282 282 281 281 281 281
300 301 307 304 306 306 304 303 302 302 305 302 300 298 293 292 300 299 291 291 292 286 284 284 283 284 283 283 283 283 283 283 282 282 281 281 281 282 282 281 281 280 280 280
302 301 305 304 305 305 303 303 301 304 305 299 299 297 294 296 297 293 292 291 289 285 283 283 283 283 283 283 282 282 283 282 281 281 281 281 282 281 281 281 281 280 280 280
304 305 304 304 305 305 302 302 304 304 300 300 298 297 295 294 294 292 291 291 286 284 283 283 283 283 282 282 282 282 282 281 280 280 281 281 281 281 281 281 280 280 280 280
305 305 305 304 305 302 302 303 303 301 301 300 300 299 298 295 294 292 291 288 284 283 283 283 282 282 282 282 281 282 282 281 280 280 280 280 280 280 280 280 280 280 280 279
303 302 304 303 304 302 301 302 301 301 301 301 301 300 299 297 295 292 290 286 283 282 282 282 282 282 283 282 281 281 281 280 280 280 280 280 280 280 280 280 279 279 278 278
303 303 304 303 302 301 302 302 302 301 300 300 300 300 299 297 295 293 290 286 283 283 282 282 282 282 282 282 281 280 280 279 279 280 280 279 279 279 278 278 277 276 275 275
302 303 306 307 303 304 302 301 301 300 300 300 300 299 298 296 295 293 290 286 283 282 282 282 281 282 281 281 281 280 280 279 279 279 279 278 278 277 277 276 276 275 275 275

GFSCGP_850_thetae_141.txt.gz
Theta_e
317 318 318 319 317 315 315 315 316 317 317 315 316 316 317 316 315 315 314 313 311 310 307 305 304 304 304 304 303 302 302 302 302 302 302 302 302 302 302 303 303 303 303 302
319 318 319 317 315 314 314 314 315 316 316 315 316 317 318 317 315 315 314 313 312 310 308 306 305 305 304 303 302 301 301 301 300 300 301 299 299 300 300 301 302 301 301 300
320 320 315 314 314 313 314 315 316 316 316 316 317 317 318 317 315 314 313 312 311 310 308 306 305 304 303 302 301 300 300 299 299 299 298 298 298 298 298 298 297 298 297 297
320 320 319 319 317 316 315 315 314 315 316 317 315 316 316 317 315 314 312 311 310 308 306 305 304 303 302 301 300 299 299 298 297 297 296 296 296 295 295 294 294 294 294 294
321 318 317 317 317 315 314 315 315 315 316 316 316 316 316 316 315 314 313 312 311 309 306 305 303 302 301 300 300 299 299 298 297 296 295 294 293 293 292 291 291 291 291 291
320 316 315 315 314 315 315 314 314 314 315 316 316 316 316 316 315 313 313 312 311 308 305 303 302 301 301 300 300 299 298 298 296 295 294 293 292 290 289 289 289 289 289 290
321 320 316 313 313 314 313 314 316 318 318 317 315 314 315 314 313 313 312 312 310 307 305 304 303 302 300 299 299 298 297 297 294 294 293 292 290 289 288 288 287 287 288 288
319 320 317 315 313 314 313 315 317 315 316 315 313 314 315 313 312 312 311 311 310 307 305 304 302 301 299 297 297 295 295 295 292 293 292 291 289 288 287 286 286 286 287 287
317 318 316 314 313 314 315 315 315 315 315 315 314 314 314 312 312 311 311 310 309 307 305 303 301 299 297 295 294 292 292 291 291 292 291 290 293 291 288 286 286 286 286 286
315 315 313 311 312 314 314 313 313 312 312 312 313 313 316 314 313 312 311 310 309 308 305 302 300 297 295 293 292 292 290 288 289 290 289 290 293 292 289 287 286 285 285 286
314 313 311 309 310 312 312 312 311 312 313 313 314 317 317 318 312 311 310 309 310 309 305 301 297 295 295 291 290 292 289 287 287 287 287 288 290 291 290 289 288 286 285 285
313 313 312 311 311 311 312 311 312 314 312 312 313 319 313 314 312 311 309 309 309 308 304 299 296 296 293 290 291 288 288 287 286 286 285 285 285 286 289 289 289 288 286 285
311 312 313 312 311 310 310 311 311 312 313 313 317 320 314 312 311 311 311 310 308 306 302 298 294 294 291 288 289 287 287 286 286 285 285 284 284 284 284 284 286 287 287 286
309 312 314 313 313 313 312 311 311 311 314 312 315 317 314 313 313 312 310 308 307 304 301 298 295 292 290 288 287 287 286 286 285 285 285 284 284 284 283 283 283 282 282 283
310 311 316 312 311 311 312 312 311 312 311 312 314 311 311 312 312 310 308 307 307 304 301 297 295 292 290 288 286 286 286 285 285 284 284 284 284 283 283 283 282 282 281 281
309 312 310 314 310 310 310 310 310 311 311 311 311 312 311 310 309 307 306 306 306 304 300 297 294 292 290 288 286 286 285 285 284 284 284 284 283 283 283 283 282 282 281 281
310 315 311 312 311 310 311 313 312 310 311 311 311 311 310 309 308 307 307 306 304 303 299 296 293 291 289 288 286 286 284 284 284 283 283 283 283 282 282 282 282 282 282 281
311 311 311 311 311 312 312 310 311 312 312 310 309 309 309 308 307 306 305 305 304 301 298 295 292 290 288 287 287 285 285 284 283 283 283 283 283 282 282 282 282 282 281 281
311 310 310 311 311 309 309 310 308 308 309 309 309 309 308 306 305 306 302 303 302 300 297 293 291 289 288 287 286 285 284 284 283 283 282 282 283 282 281 281 281 281 281 280
310 311 312 310 310 309 309 309 309 308 312 310 307 307 308 306 308 311 301 301 299 296 293 290 289 288 286 286 285 285 284 283 283 283 282 282 282 282 282 281 280 281 281 280
308 309 310 309 309 309 309 309 307 310 310 307 306 307 307 308 307 302 300 299 295 294 292 290 286 287 285 285 284 284 283 283 283 282 282 282 282 282 281 281 281 281 281 281
308 308 309 309 309 308 308 309 310 309 309 307 307 308 306 305 301 299 297 296 293 292 290 286 285 285 284 284 283 283 283 283 282 282 282 282 282 282 281 281 281 281 282 282
309 308 308 308 308 309 309 309 308 308 308 308 307 307 305 302 300 298 295 293 290 291 288 285 284 284 284 283 283 283 282 282 282 281 281 281 281 281 281 281 281 282 281 282
307 306 310 308 309 309 309 308 307 307 307 307 306 306 304 302 300 297 294 293 290 288 286 284 284 284 284 283 283 282 282 282 281 281 280 281 280 280 281 281 280 280 281 281
308 308 307 308 310 308 307 307 307 306 306 306 306 304 304 301 299 297 295 293 291 289 286 285 284 284 283 283 282 282 282 281 280 280 280 280 280 280 279 280 279 278 277 278
306 310 311 310 308 308 308 308 307 307 307 306 305 303 302 301 298 296 294 294 291 289 287 286 285 284 283 283 282 282 281 281 280 280 280 281 281 281 280 279 278 276 276 276

GFSCGP_850_thetae_147.txt.gz
Theta_e
316 313 314 314 314 315 315 315 313 313 315 314 313 313 314 314 315 313 314 313 311 310 309 308 307 306 306 306 306 306 304 304 304 303 304 303 303 303 303 302 301 301 300 300
317 316 316 317 317 317 316 315 313 313 314 314 312 313 313 314 314 314 313 313 311 309 308 308 307 307 306 306 305 304 303 303 303 303 303 301 301 301 301 301 301 300 299 298
318 318 319 319 318 317 315 315 314 314 314 314 313 313 314 314 315 315 315 314 312 311 309 308 307 306 306 305 304 303 302 302 302 302 301 300 299 298 300 300 299 298 296 295
318 318 319 317 317 316 315 315 315 315 313 312 313 310 313 314 315 314 314 313 312 310 309 308 307 306 305 304 304 303 301 301 301 301 297 297 296 296 296 297 297 296 293 290
320 320 320 320 318 318 318 319 316 315 313 314 314 313 311 314 314 312 310 311 311 310 309 307 306 305 304 303 303 302 300 300 300 299 295 293 293 293 294 296 296 295 291 288
321 321 320 320 321 319 319 315 315 314 312 312 314 313 312 313 315 313 311 311 311 310 308 307 306 304 303 302 302 301 299 299 298 297 293 292 292 292 293 294 295 294 289 288
326 324 323 320 317 315 314 313 312 312 312 313 313 313 313 313 314 313 311 311 310 309 308 307 305 303 303 302 301 300 298 297 297 293 292 291 290 290 291 293 292 291 288 288
328 329 324 320 314 315 313 313 313 314 316 315 315 315 311 311 312 313 312 311 310 309 307 306 305 303 303 302 301 299 297 296 294 292 291 290 288 289 290 292 292 289 288 287
323 322 319 319 315 315 315 313 313 314 313 314 314 312 312 311 310 310 311 311 310 308 307 306 305 304 302 300 300 298 296 296 292 290 289 288 287 288 288 290 291 289 288 289
322 320 316 314 316 315 313 314 313 313 315 316 314 314 315 312 311 311 310 311 310 309 308 306 305 304 301 300 300 298 295 295 291 289 288 288 287 287 286 287 289 290 290 290
318 320 315 313 313 315 313 314 314 313 312 312 313 314 314 312 311 311 310 311 311 310 307 306 304 303 302 301 299 297 294 292 289 288 287 287 287 286 286 285 284 286 288 289
316 315 314 312 312 312 312 312 312 311 312 312 311 309 313 311 311 312 312 311 311 310 307 305 305 303 302 300 298 294 293 289 288 288 287 287 287 286 286 285 284 284 284 284
313 313 314 314 311 310 310 311 313 314 312 311 309 307 313 313 312 312 312 311 310 309 306 305 304 303 302 299 297 292 291 288 288 287 287 287 286 286 285 284 284 283 283 283
310 312 313 314 313 311 310 311 312 312 313 310 311 309 311 312 311 310 309 310 311 310 307 305 304 303 300 298 294 289 288 287 287 287 286 286 286 286 285 284 284 283 283 283
311 311 310 313 313 313 313 313 313 313 312 311 308 310 310 310 310 310 308 309 309 307 306 306 304 301 299 296 293 289 287 287 287 286 286 286 285 285 285 285 283 283 282 282
310 312 309 309 312 312 312 311 311 311 312 312 311 310 309 311 311 310 307 308 308 307 306 304 302 300 298 296 292 290 287 286 286 285 285 285 285 285 285 284 283 283 282 282
311 309 308 311 312 312 312 309 309 310 310 311 311 310 309 309 309 308 307 307 306 306 305 303 301 299 297 295 293 290 287 285 285 284 285 284 284 284 284 283 282 282 282 282
309 309 310 310 310 313 310 311 310 310 310 309 309 309 308 309 308 307 308 307 306 306 305 302 300 298 296 293 291 288 287 285 285 284 284 284 284 284 283 283 283 282 281 281
308 307 309 312 313 310 309 310 310 310 309 310 309 309 307 308 307 305 305 305 305 305 305 303 300 298 294 291 289 288 286 285 284 284 284 284 284 283 283 283 283 283 282 282
310 308 309 311 313 312 307 309 309 309 308 308 308 308 306 307 302 299 305 305 305 305 304 302 299 295 292 290 288 287 286 285 285 284 284 284 284 283 283 283 283 283 283 282
311 309 311 310 311 310 309 308 309 307 305 307 308 307 307 302 305 307 306 304 303 302 302 300 298 295 292 289 288 287 286 285 285 284 284 284 283 283 283 283 284 283 283 282
311 312 312 311 312 311 308 307 308 306 308 307 307 307 307 307 307 305 304 303 301 300 299 298 296 294 292 290 289 287 286 285 284 283 283 283 283 283 283 283 283 283 283 282
308 305 307 308 307 306 309 309 309 310 309 308 308 307 307 307 306 305 303 302 300 299 297 296 294 293 291 290 289 286 285 284 283 282 282 282 282 283 283 283 283 283 282 282
307 307 305 306 305 307 309 309 309 309 309 308 308 308 308 307 307 304 302 300 299 298 296 295 293 292 291 290 286 284 284 283 282 282 282 282 282 283 283 283 283 283 283 282
306 307 306 305 304 307 307 308 308 308 308 307 307 307 307 307 306 305 302 300 299 297 296 294 293 292 290 287 285 284 283 283 282 281 281 282 282 282 283 281 280 280 279 279
304 304 304 302 307 306 307 308 309 308 308 307 307 307 307 306 306 305 302 299 298 297 295 294 292 290 288 285 284 284 283 282 282 281 281 281 281 280 280 279 279 279 278 277

GFSCGP_850_thetae_150.txt.gz
Theta_e
315 311 313 313 312 314 313 313 311 311 312 312 310 312 312 312 312 310 309 309 309 309 309 308 307 307 306 306 306 306 305 304 303 303 303 303 302 301 300 299 297 297 301 301
318 314 314 314 314 315 315 314 312 312 313 313 310 310 312 311 312 312 310 309 310 309 308 308 307 307 306 306 305 305 304 303 303 303 302 301 300 299 297 296 295 295 298 300
322 320 318 316 316 317 315 313 313 313 313 312 310 310 310 312 313 312 310 310 311 310 308 308 307 307 306 305 305 304 304 303 303 302 301 300 298 297 296 295 294 295 298 297
322 320 318 317 317 316 314 314 314 314 312 311 310 310 310 311 313 311 311 308 310 309 309 308 308 307 306 305 304 303 303 302 302 301 301 300 295 293 293 292 293 295 298 295
320 318 318 318 318 316 316 317 317 315 313 312 313 312 310 311 311 312 310 308 308 309 310 309 308 307 306 304 303 303 302 302 301 301 300 297 293 292 291 291 292 295 296 292
319 320 320 319 319 316 317 314 313 312 311 313 312 313 315 311 313 312 310 308 308 309 308 308 307 306 305 304 303 302 302 301 300 300 299 294 291 291 290 290 291 294 295 292
325 325 324 323 320 315 314 313 314 315 313 315 313 314 314 310 310 311 310 308 308 309 308 307 307 306 304 303 302 302 301 300 299 299 297 292 291 289 289 289 290 293 294 292
328 327 325 323 322 317 312 314 317 322 317 314 313 312 311 309 311 312 310 308 309 308 307 307 307 304 303 303 302 301 300 299 299 298 294 290 289 289 289 288 289 291 292 291
327 325 319 323 323 316 314 313 313 316 313 313 311 311 311 310 310 309 308 307 306 307 307 307 305 303 304 304 302 301 300 299 298 297 290 289 289 289 288 287 286 288 289 291
320 323 319 315 315 316 318 313 316 316 317 316 312 312 313 311 311 310 308 307 307 307 308 307 305 304 304 303 302 300 299 297 296 292 290 290 289 288 287 287 286 286 285 288
317 321 320 316 314 315 314 315 314 314 313 315 313 314 313 311 311 311 309 309 309 308 308 307 305 305 304 301 300 299 298 296 295 291 290 289 288 287 287 286 286 286 285 285
313 318 321 321 316 312 314 316 316 317 315 313 312 309 311 310 309 310 311 311 310 309 307 306 305 305 302 301 300 299 298 297 293 289 289 288 287 287 287 286 286 286 285 284
311 315 317 313 311 309 311 311 313 315 311 311 308 307 310 310 309 310 309 310 310 309 308 306 304 304 302 301 301 299 296 294 289 288 288 287 287 286 286 286 286 285 284 284
312 314 315 316 313 309 310 311 312 313 313 310 308 306 312 312 310 310 311 311 310 309 308 306 304 303 302 302 301 297 293 291 288 288 287 287 286 286 285 285 285 285 285 284
310 310 312 314 315 314 311 310 311 311 311 312 310 310 309 310 311 309 310 309 308 306 306 306 304 303 302 302 298 294 291 288 288 287 287 286 286 285 285 285 284 285 284 284
310 311 309 308 312 312 311 311 311 311 312 311 310 310 308 310 310 307 308 308 307 307 307 306 305 304 303 300 298 294 291 289 287 286 286 285 285 285 284 284 284 284 284 283
310 308 310 313 312 312 311 308 310 309 310 310 311 309 308 308 309 309 308 308 308 308 308 307 306 305 302 300 298 294 291 288 286 286 285 285 284 284 284 283 283 283 283 283
307 308 307 311 310 314 310 309 309 309 309 308 309 308 307 307 308 307 307 307 307 307 307 306 305 303 300 299 296 292 289 287 286 286 284 284 283 283 283 283 283 282 282 282
308 308 311 312 312 309 309 310 310 309 309 308 308 308 307 306 306 305 307 306 306 306 306 305 305 302 300 298 295 293 289 286 286 285 284 284 283 283 283 283 283 283 283 282
309 307 309 309 311 310 307 307 308 309 310 307 308 306 305 305 300 298 305 305 305 305 305 305 303 300 298 296 293 291 289 287 286 285 285 284 283 283 283 283 283 283 283 283
311 310 311 310 311 309 307 308 308 309 306 307 308 306 305 301 303 307 305 305 305 305 304 303 302 300 298 295 292 290 289 287 286 285 284 284 283 283 283 283 283 283 283 283
311 311 311 310 311 310 308 307 307 305 306 307 307 307 306 307 306 306 305 304 303 303 302 301 300 298 295 293 292 290 289 287 286 285 284 283 283 283 283 283 283 283 283 283
308 307 308 308 308 307 307 308 309 308 307 306 306 306 306 306 306 305 304 303 302 301 300 299 298 296 294 292 290 290 289 287 285 284 283 282 282 282 282 283 283 283 283 283
306 307 306 306 305 306 307 308 308 308 308 308 307 307 307 307 306 305 304 303 301 300 299 297 295 294 293 291 289 289 288 286 285 283 282 281 282 282 283 283 283 283 282 282
303 305 303 303 302 305 307 308 308 308 308 308 308 307 307 307 307 306 305 303 301 300 298 296 295 293 292 291 290 289 287 285 284 282 281 281 282 282 282 282 282 282 282 280
302 303 303 303 304 306 305 307 307 307 307 307 307 307 307 307 306 306 305 303 301 299 298 296 294 293 292 291 290 289 285 283 282 281 281 281 282 282 282 280 280 278 278 278